| time (UTC) | temp C | wind direction | speed KPH | gust KPH | rain 1hr cm | rain 24hr cm | rain mn cm | humidity % | barometer mb |
| 20260904234557 | 33 | 132 | 14.5 | 32.2 | 0.00 | 0.00 | 0.00 | 22 | 1001.1 |
| 20260904233103 | 33 | 181 | 12.9 | 25.7 | 0.00 | 0.00 | 0.00 | 22 | 1001.1 |
| 20260904231556 | 32 | 155 | 8.0 | 22.5 | 0.00 | 0.00 | 0.00 | 23 | 1001.0 |
| 20260904230055 | 32 | 81 | 8.0 | 17.7 | 0.00 | 0.00 | 0.00 | 22 | 1000.9 |
| 20260904224554 | 33 | 45 | 11.3 | 24.1 | 0.00 | 0.00 | 0.00 | 21 | 1000.8 |
| 20260904223054 | 33 | 109 | 4.8 | 17.7 | 0.00 | 0.00 | 0.00 | 20 | 1000.7 |
| 20260904221559 | 33 | 134 | 11.3 | 22.5 | 0.00 | 0.00 | 0.00 | 20 | 1000.9 |
| 20260904220054 | 33 | 165 | 6.4 | 17.7 | 0.00 | 0.00 | 0.00 | 20 | 1000.9 |
| 20260904214551 | 33 | 183 | 11.3 | 19.3 | 0.00 | 0.00 | 0.00 | 20 | 1001.1 |
| 20260904213050 | 33 | 294 | 1.6 | 20.9 | 0.00 | 0.00 | 0.00 | 20 | 1001.0 |
| 20260904211553 | 32 | 43 | 4.8 | 12.9 | 0.00 | 0.00 | 0.00 | 21 | 1001.3 |
| 20260904210049 | 32 | 51 | 4.8 | 16.1 | 0.00 | 0.00 | 0.00 | 21 | 1001.4 |
| 20260904204548 | 32 | 92 | 9.7 | 30.6 | 0.00 | 0.00 | 0.00 | 21 | 1001.5 |
| 20260904203050 | 33 | 38 | 8.0 | 17.7 | 0.00 | 0.00 | 0.00 | 21 | 1001.8 |
| 20260904201546 | 32 | 82 | 11.3 | 17.7 | 0.00 | 0.00 | 0.00 | 21 | 1001.9 |
| 20260904200052 | 32 | 78 | 9.7 | 20.9 | 0.00 | 0.00 | 0.00 | 21 | 1002.0 |
| 20260904194545 | 32 | 67 | 8.0 | 17.7 | 0.00 | 0.00 | 0.00 | 21 | 1002.3 |
| 20260904193047 | 32 | 152 | 3.2 | 12.9 | 0.00 | 0.00 | 0.00 | 21 | 1002.4 |
| 20260904191544 | 32 | 170 | 8.0 | 19.3 | 0.00 | 0.00 | 0.00 | 21 | 1002.5 |
| 20260904190043 | 32 | 144 | 12.9 | 16.1 | 0.00 | 0.00 | 0.00 | 20 | 1002.7 |
| 20260904184558 | 32 | 190 | 8.0 | 14.5 | 0.00 | 0.00 | 0.00 | 21 | 1002.8 |
| 20260904183040 | 32 | 46 | 4.8 | 16.1 | 0.00 | 0.00 | 0.00 | 21 | 1003.0 |
| 20260904181541 | 31 | 76 | 3.2 | 12.9 | 0.00 | 0.00 | 0.00 | 21 | 1003.2 |
| 20260904180049 | 31 | 124 | 4.8 | 11.3 | 0.00 | 0.00 | 0.00 | 22 | 1003.3 |
| 20260904174539 | 31 | 167 | 4.8 | 11.3 | 0.00 | 0.00 | 0.00 | 22 | 1003.4 |
| 20260904173045 | 31 | 300 | 0.0 | 9.7 | 0.00 | 0.00 | 0.00 | 22 | 1003.7 |
| 20260904171532 | 31 | 149 | 0.0 | 9.7 | 0.00 | 0.00 | 0.00 | 23 | 1003.8 |
| 20260904170031 | 30 | 230 | 3.2 | 9.7 | 0.00 | 0.00 | 0.00 | 24 | 1003.9 |
| 20260904164529 | 29 | 258 | 0.0 | 6.4 | 0.00 | 0.00 | 0.00 | 24 | 1004.1 |
| 20260904163026 | 29 | 210 | 1.6 | 8.0 | 0.00 | 0.00 | 0.00 | 25 | 1004.2 |
| 20260904161521 | 28 | 191 | 3.2 | 6.4 | 0.00 | 0.00 | 0.00 | 26 | 1004.3 |
| 20260904160021 | 27 | 163 | 3.2 | 8.0 | 0.00 | 0.00 | 0.00 | 27 | 1004.3 |
| 20260904154516 | 26 | 177 | 1.6 | 6.4 | 0.00 | 0.00 | 0.00 | 27 | 1004.3 |
| 20260904153010 | 25 | 131 | 1.6 | 6.4 | 0.00 | 0.00 | 0.00 | 29 | 1004.4 |
| 20260904151507 | 24 | 206 | 3.2 | 8.0 | 0.00 | 0.00 | 0.00 | 29 | 1004.4 |
| 20260904150011 | 23 | 180 | 1.6 | 8.0 | 0.00 | 0.00 | 0.00 | 30 | 1004.4 |
| 20260904144558 | 22 | 149 | 4.8 | 8.0 | 0.00 | 0.00 | 0.00 | 34 | 1004.6 |
| 20260904143055 | 22 | 217 | 3.2 | 6.4 | 0.00 | 0.00 | 0.00 | 31 | 1004.4 |
| 20260904141611 | 21 | 188 | 0.0 | 3.2 | 0.00 | 0.00 | 0.00 | 33 | 1004.5 |
| 20260904140049 | 20 | 26 | 0.0 | 1.6 | 0.00 | 0.00 | 0.00 | 36 | 1004.3 |
| 20260904134547 | 20 | 26 | 0.0 | 0.0 | 0.00 | 0.00 | 0.00 | 39 | 1004.1 |
| 20260904133047 | 19 | 26 | 0.0 | 0.0 | 0.00 | 0.00 | 0.00 | 40 | 1004.1 |
| 20260904131604 | 17 | 26 | 0.0 | 3.2 | 0.00 | 0.00 | 0.00 | 41 | 1004.0 |
| 20260904130041 | 17 | 334 | 1.6 | 4.8 | 0.00 | 0.00 | 0.00 | 40 | 1003.7 |
| 20260904124543 | 16 | 13 | 0.0 | 0.0 | 0.00 | 0.00 | 0.00 | 41 | 1003.5 |
| 20260904123046 | 16 | 13 | 0.0 | 6.4 | 0.00 | 0.00 | 0.00 | 41 | 1003.2 |
| 20260904121534 | 17 | 337 | 0.0 | 0.0 | 0.00 | 0.00 | 0.00 | 40 | 1003.1 |
| 20260904120033 | 17 | 345 | 0.0 | 0.0 | 0.00 | 0.00 | 0.00 | 38 | 1002.9 |
| 20260904114541 | 17 | 304 | 0.0 | 0.0 | 0.00 | 0.00 | 0.00 | 38 | 1002.8 |
| 20260904113033 | 18 | 304 | 0.0 | 3.2 | 0.00 | 0.00 | 0.00 | 36 | 1002.6 |
| 20260904111528 | 18 | 294 | 0.0 | 4.8 | 0.00 | 0.00 | 0.00 | 37 | 1002.5 |
| 20260904110034 | 18 | 292 | 0.0 | 4.8 | 0.00 | 0.00 | 0.00 | 39 | 1002.3 |
| 20260904104523 | 17 | 336 | 0.0 | 0.0 | 0.00 | 0.00 | 0.00 | 41 | 1002.3 |
| 20260904103022 | 18 | 336 | 0.0 | 0.0 | 0.00 | 0.00 | 0.00 | 40 | 1001.9 |
| 20260904101521 | 18 | 336 | 0.0 | 1.6 | 0.00 | 0.00 | 0.00 | 41 | 1001.8 |
| 20260904100019 | 17 | 297 | 0.0 | 0.0 | 0.00 | 0.00 | 0.00 | 44 | 1001.6 |
| 20260904094517 | 17 | 297 | 0.0 | 0.0 | 0.00 | 0.00 | 0.00 | 46 | 1001.5 |
| 20260904093016 | 18 | 297 | 0.0 | 0.0 | 0.00 | 0.00 | 0.00 | 44 | 1001.3 |
| 20260904091515 | 19 | 297 | 0.0 | 0.0 | 0.00 | 0.00 | 0.00 | 40 | 1001.3 |
| 20260904090019 | 20 | 297 | 0.0 | 1.6 | 0.00 | 0.00 | 0.00 | 40 | 1001.2 |
| 20260904084514 | 20 | 297 | 3.2 | 9.7 | 0.00 | 0.00 | 0.00 | 38 | 1001.0 |
| 20260904083016 | 20 | 5 | 3.2 | 9.7 | 0.00 | 0.00 | 0.00 | 42 | 1001.1 |
| 20260904081514 | 19 | 1 | 6.4 | 9.7 | 0.00 | 0.00 | 0.00 | 45 | 1001.2 |
| 20260904080011 | 18 | 343 | 3.2 | 6.4 | 0.00 | 0.00 | 0.00 | 46 | 1001.2 |
| 20260904074511 | 18 | 240 | 0.0 | 0.0 | 0.00 | 0.00 | 0.00 | 45 | 1001.3 |
| 20260904073009 | 18 | 234 | 1.6 | 4.8 | 0.00 | 0.00 | 0.00 | 44 | 1001.3 |
| 20260904071517 | 18 | 19 | 0.0 | 0.0 | 0.00 | 0.00 | 0.00 | 42 | 1001.1 |
| 20260904070002 | 18 | 19 | 0.0 | 0.0 | 0.00 | 0.00 | 0.00 | 40 | 1001.0 |
| 20260904064558 | 19 | 19 | 1.6 | 4.8 | 0.00 | 0.00 | 0.00 | 38 | 1000.8 |
| 20260904063108 | 21 | 33 | 1.6 | 4.8 | 0.00 | 0.00 | 0.00 | 35 | 1000.7 |
| 20260904061600 | 21 | 1 | 4.8 | 8.0 | 0.00 | 0.00 | 0.00 | 36 | 1000.5 |
| 20260904060109 | 21 | 244 | 0.0 | 1.6 | 0.00 | 0.00 | 0.00 | 33 | 1000.4 |
| 20260904054548 | 22 | 244 | 1.6 | 9.7 | 0.00 | 0.00 | 0.00 | 31 | 1000.3 |
| 20260904053048 | 25 | 240 | 4.8 | 8.0 | 0.00 | 0.00 | 0.00 | 27 | 1000.1 |
| 20260904051548 | 25 | 84 | 1.6 | 4.8 | 0.00 | 0.00 | 0.00 | 28 | 1000.2 |
| 20260904050046 | 25 | 73 | 1.6 | 11.3 | 0.00 | 0.00 | 0.00 | 27 | 1000.4 |
| 20260904044551 | 26 | 47 | 4.8 | 9.7 | 0.00 | 0.00 | 0.00 | 25 | 1000.4 |
| 20260904043046 | 26 | 80 | 6.4 | 12.9 | 0.00 | 0.00 | 0.00 | 25 | 1000.5 |
| 20260904041545 | 26 | 52 | 1.6 | 14.5 | 0.00 | 0.00 | 0.00 | 28 | 1000.6 |
| 20260904040044 | 25 | 36 | 8.0 | 9.7 | 0.00 | 0.00 | 0.00 | 30 | 1000.7 |
| 20260904034558 | 24 | 15 | 3.2 | 4.8 | 0.00 | 0.00 | 0.00 | 29 | 1000.6 |
| 20260904033043 | 25 | 14 | 0.0 | 3.2 | 0.00 | 0.00 | 0.00 | 27 | 1000.4 |
| 20260904031543 | 26 | 34 | 0.0 | 1.6 | 0.00 | 0.00 | 0.00 | 25 | 1000.3 |
| 20260904030043 | 27 | 19 | 0.0 | 3.2 | 0.00 | 0.00 | 0.00 | 22 | 1000.2 |
| 20260904024542 | 28 | 62 | 0.0 | 4.8 | 0.00 | 0.00 | 0.00 | 21 | 1000.2 |
| 20260904023042 | 28 | 92 | 3.2 | 6.4 | 0.00 | 0.00 | 0.00 | 21 | 1000.0 |
| 20260904021547 | 28 | 30 | 0.0 | 4.8 | 0.00 | 0.00 | 0.00 | 22 | 999.7 |
| 20260904020042 | 30 | 68 | 0.0 | 4.8 | 0.00 | 0.00 | 0.00 | 19 | 999.7 |
| 20260904014545 | 30 | 126 | 1.6 | 6.4 | 0.00 | 0.00 | 0.00 | 18 | 999.5 |
| 20260904013040 | 31 | 105 | 0.0 | 4.8 | 0.00 | 0.00 | 0.00 | 18 | 999.4 |
| 20260904011543 | 32 | 78 | 3.2 | 4.8 | 0.00 | 0.00 | 0.00 | 16 | 999.2 |
| 20260904010050 | 32 | 116 | 1.6 | 6.4 | 0.00 | 0.00 | 0.00 | 15 | 999.1 |
| 20260904004555 | 33 | 10 | 0.0 | 8.0 | 0.00 | 0.00 | 0.00 | 15 | 999.1 |
| 20260904003037 | 33 | 43 | 3.2 | 11.3 | 0.00 | 0.00 | 0.00 | 15 | 999.2 |
| 20260904001537 | 33 | 57 | 8.0 | 12.9 | 0.00 | 0.00 | 0.00 | 15 | 999.3 |
| 20260904000038 | 34 | 113 | 4.8 | 11.3 | 0.00 | 0.00 | 0.00 | 15 | 999.2 |